Bookmark and Share
Track history (hours):
 

Carpathia

More information available from US FCC via Universal Licensing System and Coast Guard Vessel Documentation Center.

Last reported at 2014-Apr-18 12:33 UTC. Time now 2014-Apr-18 13:18 UTC.
Position N 29°38' W 091°19'.

Length 23 m; draft 4 m.

Type: Towing. MMSI: 366993420.

NotesDate/timePositionNaut miles runAvg speedWind from/ knotsBaromVisibWave heightAir tempDewpointWater temp
2014-Apr-18 12:33N 29°38' W 091°19'5 5.4
2014-Apr-18 11:33N 29°41' W 091°13'3 2.9
2014-Apr-18 10:33N 29°44' W 091°14'4 3.9
2014-Apr-18 09:33N 29°46' W 091°18'6 5.8
2014-Apr-18 08:33N 29°49' W 091°23'7 6.7
2014-Apr-18 07:29N 29°55' W 091°28'28 1.2
2014-Apr-17 08:29N 30°22' W 091°38'3 3.2
2014-Apr-17 07:24N 30°19' W 091°37'20 3.3
2014-Apr-17 01:24N 30°00' W 091°29'1 1.3
2014-Apr-17 00:28N 29°59' W 091°28'5 2.6
2014-Apr-16 22:26N 29°54' W 091°27'3 3.2
2014-Apr-16 21:33N 29°52' W 091°25'4 3.7
2014-Apr-16 20:33N 29°49' W 091°22'4 3.7
2014-Apr-16 19:33N 29°46' W 091°20'4 3.8
2014-Apr-16 18:33N 29°46' W 091°15'3 3.4
2014-Apr-16 17:33N 29°43' W 091°13'4 3.6
2014-Apr-16 16:33N 29°40' W 091°14'3 2.7
2014-Apr-16 15:33N 29°39' W 091°17'5 4.6
2014-Apr-16 14:33N 29°39' W 091°23'4 4.0
2014-Apr-16 13:31N 29°40' W 091°27'1 1.0
2014-Apr-16 12:33N 29°41' W 091°28'3 3.4
2014-Apr-16 11:33N 29°42' W 091°32'4 3.6
2014-Apr-16 10:29N 29°45' W 091°35'  
2014-Apr-11 04:18N 29°46' W 091°43'4 5.9
2014-Apr-11 03:33N 29°46' W 091°38'6 5.9
2014-Apr-11 02:33N 29°42' W 091°32'7 6.7
2014-Apr-11 01:33N 29°39' W 091°25'7 6.6
2014-Apr-11 00:33N 29°39' W 091°17'6 5.8
2014-Apr-10 23:33N 29°43' W 091°13'1 1.2
2014-Apr-10 22:33N 29°44' W 091°14'5 4.8
2014-Apr-10 21:33N 29°46' W 091°19'6 6.0
2014-Apr-10 20:33N 29°50' W 091°23'11 0.3
2014-Apr-09 12:33N 30°00' W 091°29'4 4.2
2014-Apr-09 11:30N 29°56' W 091°28'4 3.8
2014-Apr-09 10:33N 29°53' W 091°26'4 3.9
2014-Apr-09 09:33N 29°50' W 091°23'4 4.0
2014-Apr-09 08:33N 29°46' W 091°21'4 3.8
2014-Apr-09 07:33N 29°46' W 091°16'4 3.6
2014-Apr-09 06:33N 29°43' W 091°13'4 3.7
2014-Apr-09 05:33N 29°40' W 091°14'2 2.1
2014-Apr-09 04:33N 29°39' W 091°16'4 4.0
2014-Apr-09 03:33N 29°38' W 091°21'4 4.0
2014-Apr-09 02:31N 29°39' W 091°26'4 4.2
2014-Apr-09 01:31N 29°42' W 091°30'4 4.0
2014-Apr-09 00:31N 29°44' W 091°34'4 3.7
2014-Apr-08 23:30N 29°46' W 091°37'  

Dump ship's entire track history

sailing weather and tide predictions

Carpathia — WBC2454 — position and weather